Location: Betra
(48.4113°N, 8.6634°E)
Time: 19:49:53
(UTC+00:00)

EXPRESS MD2 - Pass Details

Date: 23 May 2024
Orbit: 262 x 3333 km, 49.9° (Epoch: 16 June)

Event Time Altitude Azimuth Distance (km) Brightness Sun altitude
Exits shadow 01:24:20 32° 163° (SSE) 697 3.5 -15.7°
Maximum altitude 01:24:45 33° 144° (SE) 697 3.6 -15.7°
Drops below altitude 10° 01:28:22 10° 79° (ENE) 1,894 6.6 -15.4°
Sets 01:31:33 0° 71° (ENE) 3,259 8.1 -15.1°
